Regional Weather Roundup
Issued by NWS

Home | Current Version | Previous Version | Graphics & Text | Print | Product List | Glossary On
Versions: 1 2 3 4 5 6 7 8 9 10 11 12 13 14 15 16 17 18 19 20 21 22 23 24 25 26 27 28 29 30 31 32 33 34 35 36 37 38 39 40 41 42 43 44 45 46 47 48 49 50
000
ASUS44 KMEG 192000
RWRTN
TENNESSEE HOURLY STATE WEATHER ROUNDUP
NATIONAL WEATHER SERVICE MEMPHIS TN
300 PM CDT SAT APR 19 2014

TNZ002-004-019-021-049-052-054-088>092-192100-
WEST TENNESSEE

CITY           SKY/WX    TMP DP  RH WIND       PRES   REMARKS
MEMPHIS INTL   MOSUNNY   78  42  27 NE12      30.15F
NWS MEMPHIS      N/A     76 N/A N/A MISG        N/A
JACKSON        SUNNY     78  39  24 N8        30.16F
DYERSBURG      SUNNY     75  41  29 E10       30.18F
UNION CITY     SUNNY     73  39  29 NE10      30.17F
LEXINGTON      SUNNY     75  36  23 NE9       30.14F
$$

TNZ008-025-027-028-033-062-065-066-192100-
NORTH MIDDLE TENNESSEE

CITY           SKY/WX    TMP DP  RH WIND       PRES   REMARKS
NASHVILLE      MOSUNNY   77  40  26 NE12      30.16F
CLARKSVILLE    SUNNY     75  45  34 E10       30.17F
CROSSVILLE     CLOUDY    70  35  27 N12G18    30.16F
$$

TNZ061-075-076-078-094-096-097-192100-
SOUTH MIDDLE TENNESSEE

CITY           SKY/WX    TMP DP  RH WIND       PRES   REMARKS
TULLAHOMA      SUNNY     72  37  28 NE5       30.15F
WINCHESTER     SUNNY     72  41  33 N9        30.14F
COLUMBIA       SUNNY     75  52  43 N5        30.14F
$$

TNZ017-018-042-046-047-192100-
NORTHEAST TENNESSEE

CITY           SKY/WX    TMP DP  RH WIND       PRES   REMARKS
TRI CITIES     CLOUDY    69  33  26 VRB7      30.14S
ELIZABETHTON   CLEAR     64  37  36 CALM      30.14S
$$

TNZ012-013-036-069-073-074-192100-
CENTRAL EAST TENNESSEE

CITY           SKY/WX    TMP DP  RH WIND       PRES   REMARKS
KNOXVILLE      LGT RAIN  65  39  38 NE8       30.14S
OAK RIDGE      CLOUDY    68  40  35 SE9       30.14S
$$

TNZ083-085-099-192100-
SOUTHEAST TENNESSEE

CITY           SKY/WX    TMP DP  RH WIND       PRES   REMARKS
CHATTANOOGA    LGT RAIN  65  40  39 NE7       30.15F
$$

SKY/WX REPORTED AS FAIR MEANS FEW OR NO CLOUDS BELOW
12 THOUSAND FEET.




USA.gov is the U.S. government's official web portal to all federal, state and local government web resources and services.